Weather History for Vero Beach, FL

Change the Weather History Date:

Sunday, February 17, 2013

  Actual Average Record
Temperature  
Mean Temperature 46 °F 65 °F  
Max Temperature 55 °F 75 °F 88 °F (2001)
Min Temperature 36 °F 54 °F 32 °F (1996)
Degree Days  
Heating Degree Days 19 3  
Month to date heating degree days 68 65  
Since 1 July heating degree days 216 352  
Cooling Degree Days 0 3  
Month to date cooling degree days 40 43  
Year to date cooling degree days 174 104  
Moisture  
Dew Point 22 °F    
Average Humidity 46    
Maximum Humidity 70    
Minimum Humidity 22    
Precipitation  
Precipitation 0.00 in 0.09 in 2.45 in (1998)
Month to date precipitation 0.97 1.59  
Year to date precipitation 2.49 4.09  
Sea Level Pressure  
Sea Level Pressure 30.26 in    
Wind  
Wind Speed 11 mph (NNW)    
Max Wind Speed 24 mph    
Max Gust Speed 31 mph    
Visibility 10 miles    
Events      
T = Trace of Precipitation, MM = Missing Value Source: NWS Daily Summary

Daily Weather History Graph

Daily Weather History Graph

Search for Another Location

Airport:

Trip Planner

Search our weather history database for the weather conditions in past years. The results will help you decide how hot, cold, wet, or windy it might be!

Date:

Astronomy

Feb. 17, 2013 Rise Set
Actual Time 6:57 AM EST 6:14 PM EST
Civil Twilight 6:33 AM EST 6:38 PM EST
Nautical Twilight 6:05 AM EST 7:05 PM EST
Astronomical Twilight 5:38 AM EST 7:33 PM EST
Moon 11:29 AM EST (2/17) 12:29 AM EST (2/17)
Length of Visible Light 12h 05m
Length of Day
11h 17m
Waxing Crescent, 49% of the Moon is Illuminated
Feb 17
Waxing Crescent
Feb 17
First Quarter
Feb 25
Full
Mar 4
Last Quarter
Mar 11
New

Hourly Weather History & Observations

Time (EST) Temp. Windchill Dew Point Humidity Pressure Visibility Wind Dir Wind Speed Gust Speed Precip Events Conditions
12:53 AM 50.0 °F - 34.0 °F 54% 30.11 in 10.0 mi NW 12.7 mph - N/A   Clear
1:53 AM 46.9 °F - 35.1 °F 63% 30.13 in 10.0 mi NNW 12.7 mph - N/A   Clear
2:53 AM 46.0 °F 40.2 °F 25.0 °F 44% 30.15 in 10.0 mi NNW 12.7 mph - N/A   Clear
3:53 AM 44.1 °F 36.8 °F 21.0 °F 40% 30.16 in 10.0 mi NNW 16.1 mph 24.2 mph N/A   Clear
4:53 AM 42.1 °F 34.5 °F 19.0 °F 40% 30.18 in 10.0 mi NNW 15.0 mph - N/A   Clear
5:53 AM 39.9 °F 33.4 °F 16.0 °F 38% 30.21 in 10.0 mi NNW 10.4 mph - N/A   Clear
6:53 AM 39.0 °F 33.4 °F 17.1 °F 41% 30.23 in 10.0 mi NW 8.1 mph - N/A   Clear
7:53 AM 42.1 °F 34.9 °F 18.0 °F 38% 30.25 in 10.0 mi NW 13.8 mph - N/A   Clear
8:53 AM 46.0 °F 38.8 °F 19.0 °F 34% 30.28 in 10.0 mi NNW 18.4 mph 24.2 mph N/A   Clear
9:53 AM 48.0 °F - 15.1 °F 27% 30.30 in 10.0 mi NNW 15.0 mph 27.6 mph N/A   Clear
10:53 AM 50.0 °F - 14.0 °F 24% 30.31 in 10.0 mi NNW 15.0 mph 26.5 mph N/A   Clear
11:53 AM 52.0 °F - 18.0 °F 26% 30.30 in 10.0 mi NNW 13.8 mph 23.0 mph N/A   Clear
12:53 PM 54.0 °F - 18.0 °F 24% 30.30 in 10.0 mi NNW 9.2 mph 21.9 mph N/A   Clear
1:53 PM 54.0 °F - 18.0 °F 24% 30.28 in 10.0 mi North 13.8 mph 21.9 mph N/A   Clear
2:53 PM 54.0 °F - 18.0 °F 24% 30.27 in 10.0 mi North 13.8 mph 21.9 mph N/A   Clear
3:53 PM 54.0 °F - 19.0 °F 25% 30.27 in 10.0 mi NNE 11.5 mph 20.7 mph N/A   Clear
4:53 PM 53.1 °F - 21.0 °F 29% 30.28 in 10.0 mi NNE 12.7 mph - N/A   Clear
5:53 PM 50.0 °F - 23.0 °F 35% 30.29 in 10.0 mi North 9.2 mph - N/A   Clear
6:53 PM 45.0 °F 42.6 °F 25.0 °F 46% 30.30 in 10.0 mi NNW 4.6 mph - N/A   Clear
7:53 PM 39.9 °F 37.8 °F 28.9 °F 65% 30.31 in 10.0 mi NW 3.5 mph - N/A   Clear
8:53 PM 39.0 °F 36.8 °F 30.0 °F 70% 30.32 in 10.0 mi WNW 3.5 mph - N/A   Clear
9:53 PM 37.9 °F - 28.9 °F 70% 30.33 in 10.0 mi Calm Calm - N/A   Clear
10:53 PM 39.0 °F 34.0 °F 28.9 °F 67% 30.34 in 10.0 mi NW 6.9 mph - N/A   Clear